CAPE
0 0 0 2 2 1 2 3 3 2 2 2 3 4 3 2 1 0 0 0 0 0 0 0 0 0 0 0 0 0 0 0 0 0 0 0 0 0 0 0 0 0 0
0 0 0 1 0 0 0 0 0 0 0 0 0 0 0 0 0 0 0 0 0 0 0 0 0 0 0 0 0 0 0 0 0 0 0 0 0 0 0 0 0 0 0
0 0 0 0 0 0 0 0 0 0 0 0 0 0 0 0 0 0 0 0 0 0 0 0 0 0 0 0 0 0 0 0 0 0 0 0 0 0 0 0 0 0 0
0 0 0 0 0 0 0 0 0 0 0 0 0 0 0 0 0 0 0 0 0 0 0 0 0 0 0 0 0 0 0 0 0 0 0 0 0 0 0 0 0 0 0
0 0 0 0 0 0 0 0 0 0 0 0 0 0 0 0 0 0 0 0 0 0 0 0 0 0 0 0 0 0 0 0 0 0 0 0 0 0 0 0 0 0 0
0 0 0 0 0 0 0 0 0 0 0 0 0 0 0 0 0 0 0 0 0 0 0 0 0 0 0 0 0 0 0 0 0 0 0 0 0 0 0 0 0 0 0
0 0 0 0 0 0 0 0 0 0 0 0 0 0 0 0 0 0 0 0 0 0 0 0 0 0 0 0 0 0 0 0 0 0 0 0 0 0 0 0 0 0 0
0 0 0 0 0 0 0 0 0 0 0 0 0 0 0 0 0 0 0 0 0 0 0 0 0 0 0 0 0 0 0 0 0 0 0 0 0 0 0 0 0 0 0
0 0 0 0 0 0 0 0 0 0 0 0 0 0 0 0 0 0 0 0 0 0 0 0 0 0 0 0 0 0 0 0 0 0 0 0 0 0 0 0 0 0 0
0 0 0 0 0 0 0 0 0 0 0 0 0 0 0 0 0 0 0 0 0 0 0 0 0 0 0 0 0 0 0 0 0 0 0 0 0 0 0 0 0 0 0
0 0 0 0 0 0 0 0 0 0 0 0 0 0 0 0 0 0 0 0 0 0 0 0 0 0 0 0 0 0 0 0 0 0 0 0 0 0 0 0 0 0 0
0 0 0 0 0 0 0 0 0 0 0 0 0 0 0 0 0 0 0 0 0 0 0 0 0 0 0 0 0 0 0 0 0 0 0 0 0 0 0 0 0 0 0
0 0 0 0 0 0 0 0 0 0 0 0 0 0 0 0 0 0 0 0 0 0 0 0 0 0 0 0 0 0 0 0 0 0 0 0 0 0 0 0 0 0 0
0 0 0 0 0 0 0 0 0 0 0 0 0 0 0 0 0 0 0 0 0 0 0 0 0 0 0 0 0 0 0 0 0 0 0 0 0 0 0 0 0 0 0
0 0 0 0 0 0 0 0 0 0 0 0 0 0 0 0 0 0 0 0 0 0 0 0 0 0 0 0 0 0 0 0 0 0 0 0 0 0 0 0 0 0 0
0 0 0 0 0 0 0 0 0 0 0 0 0 0 0 1 1 2 2 2 1 0 0 0 0 0 0 0 0 0 0 0 0 0 0 0 0 0 0 0 0 0 0
0 0 0 0 0 0 0 0 0 0 0 0 0 0 0 0 0 1 1 1 0 0 0 0 0 0 0 0 0 0 0 0 0 0 0 0 0 0 0 0 0 0 0
0 0 0 0 0 0 0 0 0 0 0 0 0 0 0 0 0 0 0 0 0 0 0 0 0 0 0 0 0 0 0 0 0 0 0 0 0 0 0 0 0 0 0
0 0 0 0 0 0 0 0 0 0 0 0 0 0 0 0 0 0 0 0 0 0 0 0 0 0 0 0 0 0 0 0 0 0 0 0 0 0 0 0 0 0 0
0 0 0 0 0 0 0 0 0 0 0 0 0 0 0 0 0 0 0 0 0 0 0 0 0 0 0 0 0 0 0 0 0 0 0 0 0 0 0 0 0 0 0
0 0 0 0 0 0 0 0 0 0 0 0 0 0 0 0 0 0 0 0 0 0 0 0 0 0 0 0 0 0 0 0 0 0 0 0 0 0 0 0 0 0 0
0 0 0 0 0 0 0 0 0 0 0 0 0 0 0 0 0 0 0 0 0 0 0 0 0 0 0 0 0 0 0 0 0 0 0 0 0 0 0 0 0 0 0
0 0 0 0 0 0 0 0 0 0 0 0 0 0 0 0 0 0 0 0 0 0 0 0 0 0 0 0 0 0 0 0 0 0 0 0 0 0 0 0 0 0 0
0 0 0 0 0 0 0 0 0 0 0 0 0 0 0 0 0 0 0 0 0 0 0 0 0 0 0 0 0 0 0 0 0 0 0 0 0 0 0 0 0 0 0
0 0 0 0 0 0 0 0 0 0 0 0 0 0 0 0 0 0 0 0 0 0 0 0 0 0 0 0 0 0 0 0 0 0 0 0 0 0 0 0 0 0 0
0 0 0 0 0 0 0 0 0 0 0 0 0 0 0 0 0 0 0 0 0 0 0 0 0 0 0 0 0 0 0 0 0 0 0 0 0 0 0 0 0 0 0
CIN
0 0 0 0 0 0 0 0 0 0 0 0 0 0 0 0 0 0 0 0 0 0 0 0 0 0 0 0 0 0 0 0 0 0 0 0 0 0 0 0 0 0 0
0 0 0 0 0 0 0 0 0 0 0 0 0 0 0 0 0 0 0 0 0 0 0 0 0 0 0 0 0 0 0 0 0 0 0 0 0 0 0 0 0 0 0
0 0 0 0 0 0 0 0 0 0 0 0 0 0 0 0 0 0 0 0 0 0 0 0 0 0 0 0 0 0 0 0 0 0 0 0 0 0 0 0 0 0 0
0 0 0 0 0 0 0 0 0 0 0 0 0 0 0 0 0 0 0 0 0 0 0 0 0 0 0 0 0 0 0 0 0 0 0 0 0 0 0 0 0 0 0
0 0 0 0 0 0 0 0 0 0 0 0 0 0 0 0 0 0 0 0 0 0 0 0 0 0 0 0 0 0 0 0 0 0 0 0 0 0 0 0 0 0 0
0 0 0 0 0 0 0 0 0 0 0 0 0 0 0 0 0 0 0 0 0 0 0 0 0 0 0 0 0 0 0 0 0 0 0 0 0 0 0 0 0 0 0
0 0 0 0 0 0 0 0 0 0 0 0 0 0 0 0 0 0 0 0 0 0 0 0 0 0 0 0 0 0 0 0 0 0 0 0 0 0 0 0 0 0 0
0 0 0 0 0 0 0 0 0 0 0 0 0 0 0 0 0 0 0 0 0 0 0 0 0 0 0 0 0 0 0 0 0 0 0 0 0 0 0 0 0 0 0
0 0 0 0 0 0 0 0 0 0 0 0 0 0 0 0 0 0 0 0 0 0 0 0 0 0 0 0 0 0 0 0 0 0 0 0 0 0 0 0 0 0 0
0 0 0 0 0 0 0 0 0 0 0 0 0 0 0 0 0 0 0 0 0 0 0 0 0 0 0 0 0 0 0 0 0 0 0 0 0 0 0 0 0 0 0
0 0 0 0 0 0 0 0 0 0 0 0 0 0 0 0 0 0 0 0 0 0 0 0 0 0 0 0 0 0 0 0 0 0 0 0 0 0 0 0 0 0 0
0 0 0 0 0 0 0 0 0 0 0 0 0 0 0 0 0 0 0 0 0 0 0 0 0 0 0 0 0 0 0 0 0 0 0 0 0 0 0 0 0 0 0
0 0 0 0 0 0 0 0 0 0 0 0 0 0 0 0 0 0 0 0 0 0 0 0 0 0 0 0 0 0 0 0 0 0 0 0 0 0 0 0 0 0 0
0 0 0 0 0 0 0 0 0 0 0 0 0 0 0 0 0 0 0 0 0 0 0 0 0 0 0 0 0 0 0 0 0 0 0 0 0 0 0 0 0 0 0
0 0 0 0 0 0 0 0 0 0 0 0 0 0 0 0 0 -1 -2 -1 0 0 0 0 0 0 0 0 0 0 0 0 0 0 0 0 0 0 0 0 0 0 0
0 0 0 0 0 0 0 0 0 0 0 0 0 0 0 0 0 0 0 0 0 0 0 0 0 0 0 0 0 0 0 0 0 0 0 0 0 0 0 0 0 0 0
0 0 0 0 0 0 0 0 0 0 0 0 0 0 0 0 0 0 0 0 0 0 0 0 0 0 0 0 0 0 0 0 0 0 0 0 0 0 0 0 0 0 0
0 0 0 0 0 0 0 0 0 0 0 0 0 0 0 0 0 0 0 0 0 0 0 0 0 0 0 0 0 0 0 0 0 0 0 0 0 0 0 0 0 0 0
0 0 0 0 0 0 0 0 0 0 0 0 0 0 0 0 0 0 0 0 0 0 0 0 0 0 0 0 0 0 0 0 0 0 0 0 0 0 0 0 0 0 0
0 0 0 0 0 0 0 0 0 0 0 0 0 0 0 0 0 0 0 0 0 0 0 0 0 0 0 0 0 0 0 0 0 0 0 0 0 0 0 0 0 0 0
0 0 0 0 0 0 0 0 0 0 0 0 0 0 0 0 0 0 0 0 0 0 0 0 0 0 0 0 0 0 0 0 0 0 0 0 0 0 0 0 0 0 0
0 0 0 0 0 0 0 0 0 0 0 0 0 0 0 0 0 0 0 0 0 0 0 0 0 0 0 0 0 0 0 0 0 0 0 0 0 0 0 0 0 0 0
0 0 0 0 0 0 0 0 0 0 0 0 0 0 0 0 0 0 0 0 0 0 0 0 0 0 0 0 0 0 0 0 0 0 0 0 0 0 0 0 0 0 0
0 0 0 0 0 0 0 0 0 0 0 0 0 0 0 0 0 0 0 0 0 0 0 0 0 0 0 0 0 0 0 0 0 0 0 0 0 0 0 0 0 0 0
0 0 0 0 0 0 0 0 0 0 0 0 0 0 0 0 0 0 0 0 0 0 0 0 0 0 0 0 0 0 0 0 0 0 0 0 0 0 0 0 0 0 0
0 0 0 0 0 0 0 0 0 0 0 0 0 0 0 0 0 0 0 0 0 0 0 0 0 0 0 0 0 0 0 0 0 0 0 0 0 0 0 0 0 0 0
Wind_Speed
4 3 2 5 8 8 13 10 10 10 12 13 14 16 15 15 16 17 16 16 17 17 18 17 18 19 20 21 21 22 23 25 29 29 31 34 37 39 38 41 43 44 44
2 2 3 8 13 14 14 13 13 15 15 15 17 20 19 18 16 18 19 18 19 18 18 20 20 21 22 24 24 25 26 27 29 34 36 38 39 40 42 47 46 45 48
2 6 9 12 16 17 16 16 15 16 18 19 20 20 20 20 19 20 20 20 19 21 22 23 23 24 25 26 27 28 30 30 31 34 38 39 42 44 48 47 49 49 48
11 13 11 16 21 21 20 19 17 17 18 20 20 20 22 22 22 20 20 21 21 23 24 24 25 26 27 29 30 31 32 33 35 37 40 43 45 46 48 53 56 53 56
14 14 16 18 19 20 19 18 17 18 18 18 20 21 20 20 21 21 21 21 22 23 24 25 27 28 30 32 31 33 36 37 39 41 44 47 50 54 55 55 59 60 58
18 17 18 18 18 17 16 15 15 17 17 18 19 18 19 20 20 22 23 24 24 25 26 27 28 31 32 33 33 34 35 39 41 44 47 51 53 53 54 57 60 64 65
16 13 16 16 17 15 16 15 14 15 16 17 18 19 21 22 23 24 24 25 26 27 28 28 30 33 34 32 35 36 37 39 39 44 48 49 52 52 54 58 59 60 63
14 14 12 14 16 15 14 13 12 12 14 17 20 22 23 24 25 25 25 25 26 28 30 32 34 36 37 37 38 40 40 40 39 44 47 49 49 51 52 54 56 60 59
12 11 11 12 13 13 14 13 13 18 19 21 22 23 25 26 27 27 26 27 29 31 32 34 35 36 40 40 39 41 42 42 39 46 48 49 49 49 49 51 57 61 68
10 8 7 11 17 18 18 19 19 20 21 23 24 25 26 27 29 30 29 28 29 31 32 33 36 39 40 41 41 44 46 47 50 51 50 50 49 47 47 46 51 57 59
12 15 17 17 20 20 21 21 22 23 23 24 24 26 26 27 30 30 30 31 32 33 33 36 37 40 42 43 43 43 47 49 51 50 50 49 48 47 46 44 42 45 51
24 22 22 21 21 21 22 22 22 22 23 24 24 25 26 28 29 30 32 34 33 33 36 37 38 42 42 43 44 46 46 46 47 50 51 51 51 50 47 46 43 37 28
27 25 23 23 22 22 21 21 22 22 22 23 24 26 28 27 26 30 33 32 33 33 35 38 40 42 44 43 43 44 46 48 50 53 53 50 47 44 43 39 27 26 27
24 23 22 21 21 21 21 21 21 22 23 24 25 26 27 29 30 29 29 31 34 36 37 39 40 42 43 44 44 45 45 46 48 50 48 45 42 42 31 27 28 29 29
20 19 19 18 19 19 20 21 22 21 22 23 24 25 27 30 31 33 35 35 35 37 37 39 42 45 47 47 46 46 47 47 49 46 44 42 35 25 27 28 32 33 36
16 16 16 16 17 17 18 19 20 21 22 23 23 24 26 28 32 33 34 35 35 37 38 43 46 47 48 49 50 51 49 49 46 42 39 24 29 29 30 32 36 38 39
12 13 13 13 14 15 16 18 20 20 20 23 25 25 29 30 32 33 34 36 36 36 41 44 46 47 48 48 49 49 50 44 38 31 24 25 27 30 33 36 37 39 41
10 10 10 11 12 14 15 17 20 22 25 25 25 27 30 32 33 34 36 35 38 37 40 44 46 46 46 47 48 48 44 37 23 22 23 26 30 33 35 37 39 43 47
7 7 8 9 11 12 14 17 19 23 26 27 28 28 30 32 32 33 34 37 40 41 42 43 43 43 43 44 45 44 35 20 22 24 26 29 33 36 37 39 43 46 48
3 4 6 7 9 12 14 17 20 23 26 28 30 31 32 32 34 35 36 37 39 40 40 41 41 41 41 42 43 37 20 21 23 25 29 33 36 38 39 43 47 49 50
0 2 4 7 8 10 14 17 20 23 25 26 27 28 30 32 33 34 35 37 39 39 39 40 40 39 40 40 38 24 19 21 24 28 33 36 38 39 43 45 47 49 51
3 4 5 6 8 10 14 17 20 22 24 25 27 29 30 31 31 33 34 35 36 36 36 37 37 37 38 38 30 19 20 23 26 31 35 37 39 42 45 46 49 50 50
7 7 8 10 11 13 15 18 20 22 24 25 27 29 30 30 31 32 33 34 35 36 36 35 35 36 36 34 19 17 20 25 29 34 35 37 41 43 46 49 49 51 52
10 10 11 12 13 14 16 19 21 22 24 24 26 28 28 29 30 32 32 33 35 36 35 34 34 35 35 28 18 19 22 26 31 33 34 37 41 45 48 48 50 51 53
13 13 14 14 15 16 19 21 22 23 23 24 25 26 27 28 29 31 32 33 35 36 35 34 33 34 33 22 24 23 25 28 32 33 35 38 43 47 48 47 50 52 51
16 16 17 17 18 19 21 22 23 23 23 23 24 25 25 27 29 30 31 33 35 35 34 33 33 33 28 27 24 24 26 30 33 34 37 41 46 48 47 49 51 50 48
Wind_Direction
305 248 207 102 91 93 84 83 74 72 59 60 58 55 48 43 41 45 33 28 33 29 24 16 8 3 359 357 355 350 343 333 322 320 324 325 324 323 324 323 322 320 319
5 207 115 108 92 92 83 78 75 70 66 64 59 61 56 50 47 48 48 36 34 28 22 16 6 360 358 354 346 348 344 339 332 324 323 324 324 325 323 321 321 320 319
134 133 132 113 94 87 83 78 74 71 67 63 61 57 55 54 50 45 44 36 28 24 21 18 11 2 355 349 347 344 340 337 334 328 324 325 324 323 321 321 320 319 319
142 137 118 93 87 88 82 75 71 67 65 62 59 58 55 52 49 42 37 31 25 19 13 6 360 357 355 351 349 346 343 339 336 332 328 326 325 325 323 320 318 319 317
132 127 129 108 99 87 81 75 72 68 62 59 58 53 49 44 38 35 28 22 18 15 12 10 5 360 357 354 351 346 342 339 335 332 328 327 325 324 322 322 319 318 317
125 122 124 93 88 88 84 78 71 64 59 55 51 48 44 39 35 33 32 30 25 20 12 9 5 359 357 355 353 351 348 341 337 334 331 327 326 325 324 321 320 318 315
122 102 95 89 84 83 74 69 64 58 53 47 41 37 34 32 31 30 28 25 21 17 13 9 4 359 357 356 353 350 347 344 341 337 331 330 327 326 324 322 321 319 317
104 92 101 87 75 72 69 62 54 45 39 34 33 33 33 27 26 26 27 26 22 17 12 5 0 357 354 352 349 347 344 343 340 338 333 330 328 326 325 322 321 319 318
99 85 83 77 68 61 53 43 33 37 32 29 25 23 24 22 22 21 22 20 13 8 6 3 360 355 353 351 349 346 344 342 341 337 334 332 330 329 327 325 322 321 319
127 92 79 51 47 44 40 37 33 31 31 31 27 27 24 22 19 15 13 14 10 7 5 2 360 356 352 351 349 345 342 340 338 336 335 334 333 331 330 328 326 324 324
147 45 42 39 42 41 42 37 39 45 44 36 31 26 23 20 14 12 11 9 6 4 0 358 357 353 352 350 348 346 342 340 338 336 336 335 334 334 333 333 332 329 327
58 49 44 40 39 40 43 43 43 39 30 24 22 21 18 12 10 8 8 5 4 0 358 356 354 352 351 349 348 346 344 341 340 338 337 335 335 335 335 334 333 331 321
72 61 53 52 49 46 39 32 26 25 27 25 20 11 8 11 14 9 6 5 1 360 359 355 353 351 350 349 347 346 344 343 341 338 337 336 337 337 337 338 326 316 314
72 68 64 56 52 44 37 34 35 29 21 17 15 12 10 6 5 5 4 2 359 358 356 354 353 352 350 348 347 346 345 344 342 339 339 340 341 341 338 310 314 313 322
73 71 64 55 52 43 33 28 20 27 21 17 14 11 6 1 0 359 357 358 358 356 354 353 352 350 348 348 347 346 345 344 342 342 342 343 343 316 319 330 335 332 331
68 67 63 54 46 41 36 27 27 25 22 18 16 9 4 2 358 357 356 356 356 355 354 351 349 349 348 347 346 345 345 343 344 345 346 325 306 313 316 330 337 336 332
67 66 61 55 49 40 29 22 14 14 17 12 10 7 2 359 357 356 356 355 355 354 351 350 348 348 347 347 346 345 343 344 346 348 306 316 316 329 331 332 334 334 331
77 72 65 55 43 33 25 18 13 7 3 3 4 1 359 357 356 356 355 355 353 352 351 349 348 347 347 347 346 345 345 347 341 312 323 327 334 333 331 333 334 333 332
80 63 50 38 30 23 18 13 7 1 358 357 358 357 356 355 355 356 356 354 351 349 349 349 348 347 348 347 347 346 347 324 310 316 330 335 336 336 333 334 333 332 332
75 45 34 21 14 9 5 1 359 356 354 354 353 353 353 353 352 352 352 352 351 349 349 348 348 348 348 348 347 348 325 312 315 333 336 337 337 338 335 334 335 334 333
69 5 2 359 355 354 353 351 351 352 351 351 351 351 351 351 350 350 350 350 350 349 349 349 348 349 349 349 349 344 311 316 327 335 338 338 338 337 337 336 334 333 332
276 299 316 323 335 338 340 342 343 344 345 347 347 348 348 348 349 349 349 349 349 349 349 349 349 349 349 349 348 307 318 322 332 339 339 338 338 338 338 336 335 335 336
274 287 299 308 316 324 329 332 334 336 339 341 343 344 345 346 347 347 347 348 349 350 350 350 349 350 351 350 335 319 321 328 336 340 335 336 337 338 338 337 338 338 337
272 277 284 295 304 311 318 322 326 329 332 335 338 340 342 344 345 346 347 348 349 350 351 351 351 350 351 349 316 331 337 336 340 338 336 335 336 338 339 337 337 337 337
268 275 280 288 296 303 310 315 319 323 328 331 334 337 340 342 343 345 346 348 349 350 351 352 352 352 351 317 303 313 324 331 338 337 337 337 338 339 338 338 339 339 340
271 276 282 290 293 299 305 310 314 319 323 327 331 334 337 340 342 344 346 348 350 351 351 352 352 352 347 300 304 317 328 334 339 337 340 344 344 343 341 341 341 343 345